Content
SEND FEEDBACK

Daily
Averages
Monthly
Summary
Greece

MITILINI, GREECE


Home > Europe > Greece
Elevation: 16 feet     Latitude: 39 04N     Longitude: 026 36E

WEATHER
 
SELECT A DAY
Number of Records: 90,084;   Date Range: 7/9/96 - 9/17/14
 
SHARE

PRINT THIS DATA

[ ← Previous Day ]
WEATHER ALMANAC - FEBRUARY 14, 2013
[ Next Day → ]
[ °C ]   °F
Weather ElementAverageHighLow
Temperature52.5 °F57.2 °F (1:50 pm)48.2 °F (3:50 am)
Dewpoint47.5 °F50 °F (1:50 am)46 °F (8:00 am)
Humidity82.9 %94 % (1:50 am)64 % (2:00 pm)
Barometer29.85 in30.01 in (1:50 am)29.71 in (10:50 pm)
Wind Speed5.3 mph13.8 mph (3:20 pm)
Weather ElementAverage
Visibility6 mi
Wind DirectionE (84.4 °)

Weather ElementTotal
Precipitation---
Heating Degree Days12.3 (Base 65)
Growing Degree Days2.7 (Base 50)
Averaged from 46 records on February 14, 2013
WEATHER CONDITIONS BREAKOUT
WIND DIRECTION BREAKOUT
WEATHER BY HOUR - FEBRUARY 14, 2013
[ °C ]   °F
Local TimeTemperatureDewpointHumidityBarometerVisibilityWind DirectionWind SpeedGust SpeedPrecipitationEventsConditions
1:50 AM51.8 °F50.0 °F94 %30.01 in5.0 miNorth (360°)5.8 mphRainLight Rain
2:00 AM51.0 °F49.0 °F92 %30.01 in5.0 miNorth5.8 mphRainLight Rain
2:50 AM50.0 °F48.2 °F94 %30.01 in4.3 miWNW (300°)8.1 mphRainRain
3:50 AM48.2 °F46.4 °F93 %29.98 in5.0 miWNW (300°)4.6 mphRainLight Rain
4:20 AM48.2 °F46.4 °F93 %29.98 in5.6 miVariable2.3 mphRainLight Rain
4:50 AM48.2 °F46.4 °F93 %29.98 in6.2 miNW (310°)4.6 mphRainLight Rain
5:20 AM48.2 °F46.4 °F93 %29.98 in6.2 miVariable3.5 mphRainLight Rain
5:50 AM48.2 °F46.4 °F93 %29.95 in6.2 miCalmOvercast
6:20 AM48.2 °F46.4 °F93 %29.95 in6.2 miCalmOvercast
6:50 AM50.0 °F46.4 °F87 %29.95 in6.2 miCalmOvercast
7:20 AM50.0 °F46.4 °F87 %29.95 in6.2 miCalmOvercast
7:50 AM50.0 °F46.4 °F87 %29.92 in6.2 miVariable3.5 mphOvercast
8:00 AM50.0 °F46.0 °F82 %29.94 in6.0 mi°3.5 mphPartly Cloudy
8:20 AM50.0 °F46.4 °F87 %29.92 in6.2 miVariable3.5 mphOvercast
8:50 AM51.8 °F46.4 °F82 %29.92 in6.2 miCalmOvercast
9:20 AM51.8 °F46.4 °F82 %29.92 in6.2 miCalmOvercast
9:50 AM51.8 °F46.4 °F82 %29.92 in6.2 miCalmOvercast
10:20 AM51.8 °F46.4 °F82 %29.92 in6.2 miCalmOvercast
10:50 AM53.6 °F46.4 °F77 %29.89 in6.2 miCalmOvercast
11:20 AM53.6 °F46.4 °F77 %29.89 in6.2 miCalmOvercast
11:50 AM53.6 °F46.4 °F77 %29.89 in6.2 miNE (40°)9.2 mphOvercast
12:20 PM53.6 °F46.4 °F77 %29.86 in6.2 miEast (100°)6.9 mphOvercast
12:50 PM55.4 °F46.4 °F72 %29.86 in6.2 miESE (110°)8.1 mphMostly Cloudy
1:20 PM55.4 °F46.4 °F72 %29.86 in6.2 miESE (110°)9.2 mphMostly Cloudy
1:50 PM57.2 °F48.2 °F72 %29.83 in6.2 miESE (120°)8.1 mphMostly Cloudy
2:00 PM57.0 °F48.0 °F64 %29.85 in6.0 miESE (120°)8.1 mphMostly Cloudy
2:20 PM57.2 °F48.2 °F72 %29.83 in6.2 miESE (120°)8.1 mphMostly Cloudy
2:50 PM57.2 °F48.2 °F72 %29.80 in6.2 miESE (110°)11.5 mphMostly Cloudy
3:20 PM57.2 °F48.2 °F72 %29.77 in6.2 miESE (110°)13.8 mphMostly Cloudy
3:50 PM57.2 °F48.2 °F72 %29.77 in6.2 miESE (110°)13.8 mphMostly Cloudy
4:20 PM57.2 °F48.2 °F72 %29.74 in6.2 miESE (120°)11.5 mphMostly Cloudy
4:50 PM57.2 °F48.2 °F72 %29.74 in6.2 miESE (120°)11.5 mphMostly Cloudy
5:20 PM55.4 °F50.0 °F82 %29.74 in6.2 miSE (130°)9.2 mphMostly Cloudy
5:50 PM55.4 °F50.0 °F82 %29.74 in6.2 miSSE (160°)5.8 mphMostly Cloudy
6:20 PM53.6 °F50.0 °F88 %29.74 in6.2 miVariable3.5 mphRainLight Rain
6:50 PM51.8 °F48.2 °F88 %29.74 in6.2 miVariable2.3 mphRainLight Rain
7:20 PM51.8 °F48.2 °F88 %29.74 in6.2 miVariable2.3 mphRainLight Rain
7:50 PM51.8 °F48.2 °F88 %29.74 in6.2 miSSE (150°)4.6 mphRainLight Rain
8:00 PM53.0 °F48.0 °F78 %29.76 in6.0 miSSE (150°)4.6 mphRainLight Rain
8:20 PM51.8 °F48.2 °F88 %29.74 in6.2 miSSE (150°)4.6 mphMostly Cloudy
8:50 PM51.8 °F48.2 °F88 %29.74 in6.2 miSE (140°)5.8 mphMostly Cloudy
9:20 PM51.8 °F48.2 °F88 %29.74 in6.2 miVariable3.5 mphMostly Cloudy
9:50 PM51.8 °F48.2 °F88 %29.74 in6.2 miVariable2.3 mphMostly Cloudy
10:20 PM51.8 °F46.4 °F82 %29.74 in5.0 miSE (140°)9.2 mphRainLight Rain
10:50 PM51.8 °F46.4 °F82 %29.71 in5.0 miESE (110°)10.4 mphRainLight Rain
11:50 PM51.8 °F48.2 °F88 %29.71 in5.0 miESE (110°)10.4 mphRainLight Rain
Hourly data recorded from LGMT, located miles away from Mitilini, Greece







STORIES FROM OUR PARTNERS